User: anonymous   Login
Location: Windsor
(43.2292°N, 89.3015°W)
Time: 18:01:10
(UTC+00:00)
Language:

FENGYUN 1C DEB - Orbit

View from above orbital plane
View from above orbital plane
View from above satellite
View from above satellite

Ground track
Ground track

The orbit data is extracted from the following two-line orbital elements,

1 31353U 99025BRH 22320.12456440  .00000757  00000-0  25731-3 0  9995
2 31353  99.0527 195.8191 0246423  71.8562 290.9281 14.23992760805774
Epoch (UTC): 16 November 2022 02:59:22
Eccentricity: 0.0246423
inclination: 99.0527°
perigee height: 635 km
apogee height: 989 km
right ascension of ascending node: 195.8191°
argument of perigee: 71.8562°
revolutions per day: 14.23992760
mean anomaly at epoch: 290.9281°
orbit number at epoch: 80577

The dashed part of the orbit path shows where the satellite is in the earth's shadow,  

DLR